TimeEST,TemperatureF,Dew PointF,Humidity,Sea Level PressureIn,VisibilityMPH,Wind Direction,Wind SpeedMPH,Gust SpeedMPH,PrecipitationIn,Events,Conditions,WindDirDegrees,DateUTC
12:21 AM,30.2,30.2,100,29.82,5.0,Calm,Calm,-,0.01,Snow,Light Snow,0,2013-11-27 05:21:00
12:28 AM,30.2,30.2,100,29.81,4.0,Calm,Calm,-,0.02,,Overcast,0,2013-11-27 05:28:00
12:36 AM,30.2,30.2,100,29.80,4.0,Calm,Calm,-,0.02,Snow,Light Snow,0,2013-11-27 05:36:00
12:51 AM,30.9,30.0,96,29.85,4.0,Calm,Calm,-,0.03,Snow,Light Snow,0,2013-11-27 05:51:00
1:51 AM,32.0,30.9,96,29.79,4.0,NNE,3.5,-,0.03,Snow,Light Snow,20,2013-11-27 06:51:00
2:09 AM,32.0,32.0,100,29.70,4.0,North,4.6,-,0.01,Snow,Light Snow,360,2013-11-27 07:09:00
2:51 AM,33.1,32.0,96,29.73,4.0,NE,6.9,-,0.09,Rain,Rain,50,2013-11-27 07:51:00
3:51 AM,32.0,32.0,100,29.64,4.0,NE,10.4,-,0.19,,Overcast,40,2013-11-27 08:51:00
4:24 AM,33.8,32.0,93,29.53,2.5,NNE,8.1,-,0.10,Rain,Heavy Rain,20,2013-11-27 09:24:00
4:51 AM,33.1,32.0,96,29.57,3.0,NE,5.8,-,0.19,Rain,Rain,50,2013-11-27 09:51:00
5:05 AM,33.8,33.8,100,29.52,3.0,NNE,3.5,-,0.03,Rain,Rain,20,2013-11-27 10:05:00
5:12 AM,33.8,32.0,93,29.51,2.5,NNE,3.5,-,0.05,Rain,Rain,30,2013-11-27 10:12:00
5:51 AM,33.1,32.0,96,29.56,2.5,North,3.5,-,0.11,Rain,Rain,350,2013-11-27 10:51:00
6:22 AM,33.8,32.0,93,29.48,3.0,NNE,3.5,-,0.03,Rain,Light Rain,30,2013-11-27 11:22:00
6:33 AM,33.8,32.0,93,29.47,3.0,Calm,Calm,-,0.03,Rain,Light Rain,0,2013-11-27 11:33:00
6:48 AM,32.0,32.0,100,29.46,3.0,Calm,Calm,-,0.04,,Overcast,0,2013-11-27 11:48:00
6:51 AM,32.0,32.0,100,29.51,2.5,Calm,Calm,-,0.04,,Overcast,0,2013-11-27 11:51:00
6:57 AM,32.0,32.0,100,29.45,3.0,ENE,3.5,-,0.00,,Overcast,60,2013-11-27 11:57:00
7:11 AM,32.0,32.0,100,29.44,4.0,NE,4.6,-,0.00,,Overcast,50,2013-11-27 12:11:00
7:37 AM,32.0,32.0,100,29.43,2.0,NE,4.6,-,0.02,,Overcast,50,2013-11-27 12:37:00
7:46 AM,32.0,32.0,100,29.43,1.2,ENE,5.8,-,0.02,,Overcast,70,2013-11-27 12:46:00
7:51 AM,32.0,30.9,96,29.48,1.2,East,5.8,-,0.03,,Overcast,80,2013-11-27 12:51:00
8:01 AM,32.0,32.0,100,29.42,1.8,ENE,8.1,-,0.00,,Overcast,70,2013-11-27 13:01:00
8:03 AM,32.0,30.2,93,29.42,2.0,ENE,9.2,-,0.00,,Overcast,70,2013-11-27 13:03:00
8:33 AM,32.0,32.0,100,29.41,3.0,North,3.5,-,0.02,,Overcast,360,2013-11-27 13:33:00
8:47 AM,33.8,32.0,93,29.41,4.0,Calm,Calm,-,0.02,,Overcast,0,2013-11-27 13:47:00
8:51 AM,33.1,32.0,96,29.46,5.0,Calm,Calm,-,0.02,,Overcast,0,2013-11-27 13:51:00
9:22 AM,33.8,32.0,93,29.41,1.8,Calm,Calm,-,0.02,Snow,Light Snow,0,2013-11-27 14:22:00
9:51 AM,33.1,33.1,100,29.45,1.2,Calm,Calm,-,0.04,Snow,Light Snow,0,2013-11-27 14:51:00
10:04 AM,33.8,30.2,87,29.41,3.0,WSW,3.5,-,0.00,Snow,Light Snow,250,2013-11-27 15:04:00
10:51 AM,33.1,32.0,96,29.44,10.0,West,4.6,-,0.00,,Overcast,270,2013-11-27 15:51:00
11:22 AM,32.0,30.2,93,29.39,5.0,Variable,3.5,-,N/A,,Overcast,0,2013-11-27 16:22:00
11:51 AM,32.0,30.9,96,29.44,6.0,Variable,5.8,-,N/A,,Overcast,0,2013-11-27 16:51:00
12:10 PM,30.2,30.2,100,29.38,1.8,Variable,5.8,-,0.00,Snow,Light Snow,0,2013-11-27 17:10:00
12:25 PM,30.2,30.2,100,29.36,1.2,Variable,4.6,-,0.00,Snow,Light Snow,0,2013-11-27 17:25:00
12:37 PM,30.2,28.4,93,29.39,3.0,WNW,6.9,-,0.00,Snow,Light Snow,300,2013-11-27 17:37:00
12:51 PM,30.9,28.0,89,29.42,2.5,Variable,5.8,-,0.00,Snow,Light Snow,0,2013-11-27 17:51:00
1:01 PM,30.2,28.4,93,29.38,1.2,Calm,Calm,-,0.00,Snow,Light Snow,0,2013-11-27 18:01:00
1:18 PM,30.2,28.4,93,29.39,3.0,Variable,3.5,-,0.00,Snow,Light Snow,0,2013-11-27 18:18:00
1:51 PM,30.0,27.0,88,29.45,4.0,West,6.9,-,0.00,Snow,Light Snow,280,2013-11-27 18:51:00
2:51 PM,28.9,27.0,92,29.47,3.0,West,5.8,-,0.00,,Overcast,260,2013-11-27 19:51:00
3:33 PM,28.4,26.6,93,29.40,2.0,Variable,4.6,-,0.00,Snow,Light Snow,0,2013-11-27 20:33:00
3:41 PM,28.4,26.6,93,29.40,1.2,Variable,3.5,-,0.01,Snow,Light Snow,0,2013-11-27 20:41:00
3:51 PM,28.0,26.1,92,29.44,1.8,Variable,4.6,-,0.01,Snow,Light Snow,0,2013-11-27 20:51:00
4:39 PM,28.4,26.6,93,29.43,1.2,West,8.1,-,0.01,Snow,Light Snow,270,2013-11-27 21:39:00
4:51 PM,28.0,26.1,92,29.47,1.8,Variable,6.9,-,0.01,Snow,Light Snow,0,2013-11-27 21:51:00
4:59 PM,28.4,26.6,93,29.43,2.0,West,5.8,-,0.00,Snow,Light Snow,260,2013-11-27 21:59:00
5:27 PM,28.4,26.6,93,29.42,1.5,West,6.9,-,0.01,Snow,Light Snow,270,2013-11-27 22:27:00
5:51 PM,28.0,26.1,92,29.48,1.0,West,5.8,-,0.03,Snow,Light Snow,260,2013-11-27 22:51:00
5:58 PM,28.4,26.6,93,29.43,0.8,Variable,4.6,-,0.00,Snow,Light Snow,0,2013-11-27 22:58:00
6:02 PM,28.4,26.6,93,29.43,1.0,West,5.8,-,0.01,Snow,Light Snow,280,2013-11-27 23:02:00
6:09 PM,28.4,26.6,93,29.42,1.2,West,6.9,-,0.01,Snow,Light Snow,280,2013-11-27 23:09:00
6:51 PM,28.0,25.0,88,29.49,1.8,WNW,5.8,16.1,0.02,Snow,Light Snow,290,2013-11-27 23:51:00
6:58 PM,28.4,24.8,86,29.44,2.5,West,9.2,16.1,0.00,Snow,Light Snow,280,2013-11-27 23:58:00
7:01 PM,28.4,24.8,86,29.44,3.0,Variable,5.8,16.1,0.00,Snow,Light Snow,0,2013-11-28 00:01:00
7:10 PM,28.4,24.8,86,29.44,4.0,WNW,5.8,-,0.00,Snow,Light Snow,290,2013-11-28 00:10:00
7:27 PM,26.6,24.8,93,29.45,2.5,WNW,9.2,-,0.00,Snow,Light Snow,300,2013-11-28 00:27:00
7:36 PM,26.6,24.8,93,29.45,3.0,WNW,8.1,17.3,0.00,Snow,Light Snow,300,2013-11-28 00:36:00
7:48 PM,26.6,24.8,93,29.46,2.5,West,8.1,-,0.00,Snow,Light Snow,280,2013-11-28 00:48:00
7:51 PM,26.1,24.1,92,29.52,2.5,West,9.2,-,0.00,Snow,Light Snow,270,2013-11-28 00:51:00
8:06 PM,24.8,21.2,86,29.47,1.8,WNW,9.2,18.4,0.00,Snow,Light Snow,290,2013-11-28 01:06:00
8:17 PM,24.8,21.2,86,29.47,1.5,Variable,5.8,-,0.00,Snow,Light Snow,0,2013-11-28 01:17:00
8:51 PM,24.1,21.0,88,29.53,2.5,WNW,6.9,-,0.00,Snow,Light Snow,290,2013-11-28 01:51:00
9:06 PM,24.8,21.2,86,29.47,4.0,WNW,9.2,17.3,0.00,Snow,Light Snow,290,2013-11-28 02:06:00
9:26 PM,23.0,19.4,86,29.47,2.5,West,4.6,-,0.00,Snow,Light Snow,280,2013-11-28 02:26:00
9:36 PM,21.2,19.4,93,29.48,5.0,West,6.9,-,0.00,Snow,Light Snow,280,2013-11-28 02:36:00
9:51 PM,21.9,19.9,92,29.54,6.0,WNW,10.4,16.1,0.00,,Overcast,290,2013-11-28 02:51:00
10:51 PM,19.0,16.0,88,29.57,2.5,West,6.9,20.7,0.01,Snow,Light Snow,270,2013-11-28 03:51:00
11:05 PM,17.6,15.8,93,29.51,3.0,West,11.5,19.6,0.00,Snow,Light Snow,280,2013-11-28 04:05:00
11:29 PM,17.6,15.8,93,29.51,2.5,WNW,11.5,20.7,0.00,Snow,Light Snow,290,2013-11-28 04:29:00
11:46 PM,17.6,15.8,93,29.53,1.5,NW,10.4,18.4,0.00,Snow,Light Snow,310,2013-11-28 04:46:00
11:51 PM,17.1,14.0,88,29.60,1.5,WNW,12.7,18.4,0.00,Snow,Light Snow,290,2013-11-28 04:51:00